Wind_Speed
11 10 9 9 8 7 6 6 7 7 6 6 6 6 6 6 5 5 5 6 6 5 5 4 4 4 3 3 2 1 1 1 1 2 3 4 4 5 5 5 6 6 6
10 9 9 9 8 7 6 5 5 5 5 5 5 5 5 5 5 5 4 4 4 4 4 3 3 3 2 2 1 1 1 1 2 2 3 4 5 5 5 6 7 7 7
9 9 8 8 8 7 6 5 5 5 4 4 5 5 5 4 3 3 3 3 2 2 2 2 2 2 1 1 1 1 1 2 3 3 4 4 5 6 7 7 8 8 8
8 8 8 7 7 7 6 5 4 4 4 4 4 4 4 4 3 3 3 3 2 2 2 3 2 1 1 1 2 3 3 3 3 4 4 5 6 6 7 8 8 8 9
7 7 7 7 7 6 6 5 4 3 3 3 3 3 2 3 3 3 2 2 2 2 2 2 1 0 1 2 3 3 4 4 4 4 5 5 6 7 8 8 9 9 9
6 6 6 6 6 6 5 5 4 4 3 3 2 3 2 2 2 2 2 1 1 1 1 0 1 2 2 3 3 4 4 5 5 6 6 7 7 8 9 9 10 10 11
6 5 5 5 5 4 4 5 4 4 3 3 3 3 3 2 2 2 2 2 1 1 1 1 2 2 3 3 4 5 6 6 6 7 8 8 8 9 9 10 11 12 12
6 6 5 5 5 4 4 4 4 3 3 3 3 3 2 2 2 2 2 1 2 2 2 3 3 4 4 4 5 6 7 7 7 8 8 9 9 10 10 11 12 13 13
6 7 6 5 5 4 4 4 4 3 4 3 3 3 2 2 2 2 2 3 3 3 3 4 4 5 6 6 6 7 7 8 8 9 9 10 10 11 11 11 12 12 13
7 7 7 6 6 5 5 5 4 4 4 3 3 3 3 3 3 3 3 4 4 3 3 4 5 5 6 6 6 7 7 8 8 9 9 10 10 11 12 12 12 13 13
8 8 7 7 7 7 7 6 6 5 4 4 4 4 4 5 5 5 5 5 4 2 3 5 5 6 6 7 7 8 8 9 9 10 10 10 11 12 12 13 13 13 13
10 10 10 9 9 9 8 8 7 7 6 6 6 6 6 6 7 6 6 6 5 5 5 6 7 7 8 8 9 9 9 10 10 11 11 11 12 12 13 14 14 14 14
12 12 12 11 11 10 10 9 8 8 8 8 7 8 8 8 9 8 8 8 8 7 7 7 8 9 9 10 10 11 11 12 12 12 12 12 12 13 14 15 15 15 15
13 14 14 13 12 12 12 12 10 10 10 10 10 10 11 11 11 10 10 10 9 9 9 10 10 11 11 12 12 13 13 13 14 13 14 14 14 14 15 16 16 16 16
15 16 16 15 14 14 13 13 13 13 13 12 12 12 12 13 13 12 11 11 12 12 12 12 13 13 13 13 14 15 15 15 15 15 15 16 16 16 17 17 17 17 17
17 17 18 18 16 15 15 14 15 15 15 15 15 15 14 14 14 14 14 14 14 14 14 14 15 15 16 16 16 16 17 17 17 17 17 17 18 18 19 19 19 19 19
20 19 19 19 19 18 18 18 17 17 18 17 17 17 17 17 16 16 16 16 17 17 17 17 17 18 17 18 18 19 19 18 18 19 19 19 20 20 21 21 20 20 20
22 22 22 22 22 21 20 20 20 19 19 20 19 20 19 18 18 18 18 18 19 19 19 19 19 19 19 19 19 20 20 20 20 20 21 21 21 21 22 21 21 21 21
25 24 24 24 24 23 23 22 22 21 21 21 21 21 20 20 20 20 20 20 20 20 20 21 21 21 21 21 21 22 22 22 22 22 22 22 23 23 23 23 23 23 24
27 27 26 26 25 25 25 25 24 23 23 23 23 22 22 22 22 22 22 22 21 21 22 22 22 22 23 24 24 25 24 24 24 24 24 24 23 24 24 25 25 25 25
28 27 27 26 25 26 26 26 25 24 24 24 24 24 24 24 24 24 23 23 23 23 23 24 25 25 25 25 26 26 26 26 26 25 25 25 25 25 25 25 25 25 26
27 27 28 29 28 28 27 26 25 26 26 26 26 26 26 26 26 26 25 25 24 25 25 25 26 27 27 27 27 26 26 26 26 26 26 25 26 26 26 26 26 27 27
28 28 28 29 29 30 29 27 27 27 27 27 27 27 27 28 28 28 27 26 26 26 26 27 27 28 28 28 28 28 28 29 28 27 27 27 27 27 28 28 28 28 28
29 29 29 29 29 29 29 28 28 29 29 28 29 29 28 28 28 28 28 28 27 27 27 28 29 29 30 30 30 30 30 30 30 29 29 29 29 29 29 29 30 31 31
30 29 29 29 29 29 30 29 29 29 29 29 29 29 29 28 28 28 28 28 28 29 29 30 31 31 31 31 31 31 31 30 31 30 31 31 31 31 31 31 31 32 32
31 30 30 30 29 29 29 29 29 30 30 29 29 29 29 29 29 29 29 29 29 29 30 31 32 32 31 31 31 31 31 31 31 31 31 31 32 32 32 32 32 32 32
Wind_Direction
43 46 49 53 58 64 68 73 78 82 86 88 88 85 85 87 88 89 96 106 108 111 115 114 114 113 108 102 84 76 51 8 313 302 292 291 295 301 304 303 301 297 294
38 40 45 49 51 54 57 67 76 81 84 85 90 84 86 90 86 85 94 104 111 113 116 117 120 117 103 85 90 64 20 344 325 310 309 309 309 311 313 314 314 311 308
29 30 33 38 40 43 50 60 73 79 77 75 80 82 86 84 86 89 91 102 117 125 130 125 129 117 91 51 30 10 338 325 311 303 304 304 304 303 305 306 307 310 309
22 24 24 27 31 32 39 48 61 68 74 73 76 72 79 72 86 99 94 96 103 129 145 144 141 123 53 358 349 350 341 324 309 303 302 302 303 304 304 306 307 308 308
10 15 18 18 23 26 30 35 41 48 58 68 76 69 72 67 80 92 94 97 105 125 138 145 151 187 328 338 337 332 333 330 323 311 306 302 302 304 304 306 306 305 306
355 1 7 11 13 18 22 24 27 32 36 43 53 51 55 55 72 70 64 88 116 132 136 108 305 303 311 320 322 320 322 323 317 311 311 310 305 300 300 303 306 306 306
336 341 349 359 3 9 16 16 16 24 30 33 35 33 39 51 50 53 50 30 19 9 326 346 337 319 310 316 321 321 320 316 311 308 309 309 308 306 301 302 305 305 304
323 317 324 330 343 350 349 355 359 3 8 10 13 15 22 26 25 15 5 344 345 332 300 304 312 312 311 312 313 314 315 314 312 310 309 312 310 307 305 305 306 305 304
307 305 309 311 316 324 323 327 335 344 352 359 1 2 2 349 338 337 332 314 313 310 308 309 305 305 299 301 305 307 311 309 308 309 308 309 309 307 306 306 307 308 307
289 292 296 297 300 305 300 311 324 324 331 343 343 332 323 316 316 318 323 327 316 299 309 325 323 315 309 305 310 315 315 310 310 311 312 313 314 313 311 311 310 309 306
276 277 283 285 290 294 289 292 300 308 307 313 317 313 306 303 305 310 313 320 320 301 311 321 329 326 320 315 315 315 316 314 311 310 310 311 310 310 312 313 312 310 307
270 273 274 277 280 284 283 279 287 292 294 293 299 302 300 298 299 301 305 309 309 301 305 316 322 322 319 318 316 316 315 313 310 310 309 310 310 310 311 312 312 310 308
267 268 269 273 276 278 280 277 281 282 284 284 285 291 293 291 292 292 298 298 299 296 299 306 313 314 314 315 314 312 312 310 308 306 307 307 308 309 310 310 309 308 305
263 263 264 271 273 275 275 269 273 278 280 282 287 291 292 292 291 287 290 291 292 293 297 301 305 308 308 308 309 310 308 306 305 303 301 301 303 305 307 307 305 305 303
259 259 258 264 268 269 273 270 271 276 278 280 284 291 291 288 287 288 289 288 292 295 295 297 301 304 306 303 303 306 306 302 301 300 300 301 302 304 306 306 303 303 303
255 255 256 261 264 264 267 269 269 272 275 277 279 282 287 288 288 288 287 285 287 290 290 294 297 301 302 305 303 304 304 304 300 297 300 301 302 302 304 305 303 301 300
253 254 255 259 260 261 265 269 270 270 272 274 276 279 283 285 286 289 290 285 286 287 288 291 295 298 300 301 302 303 304 303 300 300 302 299 299 298 298 298 299 299 298
252 254 255 258 257 257 261 265 267 268 272 272 273 277 279 281 284 286 288 288 289 289 287 289 292 296 298 298 299 300 300 301 301 299 298 296 297 297 296 296 297 300 300
251 253 254 257 257 257 259 262 265 266 268 271 274 275 276 278 280 283 285 285 287 287 289 289 291 294 295 295 297 297 297 297 298 297 296 295 296 295 296 297 297 298 299
250 251 254 255 255 257 259 259 261 265 266 267 270 272 273 276 278 279 282 283 285 285 287 290 291 292 294 294 295 296 295 295 296 296 295 294 294 295 297 298 299 298 298
250 252 255 255 257 258 259 259 262 266 267 268 270 271 273 276 277 277 280 281 282 284 285 287 288 289 291 293 294 293 293 293 294 294 294 295 294 295 296 297 298 299 299
251 253 255 254 256 256 257 259 262 266 268 269 270 271 273 275 275 276 277 279 280 282 283 285 287 288 290 290 290 290 290 290 291 292 292 294 294 294 296 297 298 298 298
250 252 255 254 253 254 256 260 261 265 266 268 270 272 273 274 275 276 276 277 278 279 281 284 286 288 288 289 289 288 288 288 289 289 290 291 291 292 294 294 295 295 296
250 252 254 253 253 254 257 259 262 265 266 267 269 271 272 274 274 274 275 277 277 278 280 282 284 286 288 288 288 288 288 287 287 288 288 288 290 292 293 294 295 296 296
250 250 252 253 253 254 256 259 262 265 268 269 269 269 270 272 274 274 274 274 275 277 280 282 282 285 287 286 286 287 287 286 287 287 288 289 291 292 292 292 293 296 297
249 250 252 252 253 255 256 259 261 263 266 268 269 270 271 272 274 275 274 274 275 277 279 282 284 287 288 287 286 285 285 287 288 289 291 292 292 291 292 293 293 294 296
Height
5910 5908 5906 5905 5904 5902 5901 5901 5900 5899 5898 5898 5897 5897 5897 5897 5897 5896 5896 5896 5896 5896 5896 5896 5896 5896 5896 5896 5896 5896 5896 5896 5896 5895 5895 5895 5894 5894 5893 5892 5891 5890 5890
5912 5910 5909 5907 5906 5904 5903 5902 5901 5900 5900 5899 5899 5898 5898 5898 5898 5897 5897 5897 5897 5896 5897 5897 5897 5897 5897 5897 5897 5897 5896 5896 5895 5895 5895 5894 5894 5893 5892 5891 5890 5889 5888
5913 5912 5910 5909 5907 5906 5905 5903 5903 5902 5901 5900 5900 5899 5899 5899 5899 5898 5898 5898 5897 5897 5897 5897 5897 5897 5897 5897 5897 5896 5896 5895 5895 5894 5894 5893 5893 5892 5891 5890 5889 5888 5887
5914 5913 5912 5910 5909 5907 5906 5905 5904 5903 5902 5901 5901 5900 5900 5899 5899 5899 5898 5898 5898 5897 5897 5897 5897 5897 5897 5897 5896 5896 5895 5894 5894 5893 5893 5892 5891 5891 5890 5889 5887 5886 5885
5915 5914 5913 5911 5910 5909 5907 5906 5905 5904 5903 5902 5902 5901 5900 5900 5900 5899 5899 5898 5898 5898 5897 5897 5897 5897 5897 5896 5896 5895 5895 5894 5893 5892 5892 5891 5890 5889 5888 5887 5886 5884 5883
5915 5914 5913 5912 5911 5909 5908 5907 5906 5905 5904 5903 5902 5902 5901 5901 5900 5900 5899 5899 5899 5898 5898 5897 5897 5897 5897 5896 5895 5895 5894 5893 5892 5891 5890 5889 5888 5887 5886 5885 5884 5882 5881
5914 5914 5913 5912 5911 5910 5909 5908 5907 5906 5905 5904 5903 5903 5902 5901 5901 5900 5900 5899 5899 5898 5898 5897 5897 5896 5896 5895 5894 5894 5893 5892 5891 5890 5889 5888 5886 5885 5884 5883 5882 5880 5879
5914 5913 5912 5912 5911 5910 5909 5908 5907 5906 5905 5904 5904 5903 5902 5901 5901 5900 5900 5899 5899 5898 5898 5897 5896 5896 5895 5894 5893 5892 5891 5890 5889 5888 5887 5886 5884 5883 5882 5881 5879 5878 5876
5912 5912 5911 5911 5910 5910 5909 5908 5907 5906 5906 5905 5904 5903 5902 5902 5901 5900 5900 5899 5899 5898 5897 5896 5896 5895 5894 5893 5892 5891 5889 5888 5887 5886 5885 5884 5882 5881 5879 5878 5876 5875 5873
5911 5910 5910 5910 5909 5909 5908 5907 5907 5906 5905 5904 5903 5903 5902 5902 5901 5900 5899 5899 5897 5897 5896 5896 5895 5894 5892 5891 5890 5889 5888 5887 5885 5884 5883 5881 5880 5878 5877 5875 5873 5872 5870
5909 5909 5908 5908 5908 5907 5907 5906 5905 5905 5904 5903 5903 5902 5901 5901 5900 5899 5898 5898 5896 5896 5895 5895 5894 5892 5891 5890 5889 5887 5886 5885 5883 5882 5880 5879 5877 5876 5874 5873 5871 5869 5867
5906 5906 5906 5906 5905 5905 5904 5904 5904 5903 5903 5902 5901 5901 5900 5899 5899 5898 5897 5896 5896 5895 5894 5893 5892 5891 5890 5888 5887 5886 5884 5883 5881 5880 5878 5876 5875 5873 5872 5870 5868 5866 5864
5903 5903 5903 5903 5903 5903 5902 5902 5901 5901 5901 5900 5899 5899 5898 5897 5897 5896 5896 5895 5894 5893 5893 5892 5891 5890 5888 5887 5885 5883 5882 5880 5878 5877 5875 5874 5872 5870 5869 5867 5865 5863 5861
5900 5900 5900 5900 5900 5899 5899 5899 5899 5898 5898 5898 5897 5896 5895 5895 5895 5894 5893 5893 5892 5891 5891 5890 5889 5887 5886 5884 5883 5881 5879 5877 5875 5874 5872 5871 5869 5867 5865 5863 5861 5859 5857
5895 5896 5896 5896 5896 5896 5896 5895 5895 5895 5895 5895 5894 5894 5893 5892 5892 5892 5891 5891 5890 5889 5888 5888 5886 5885 5883 5881 5880 5878 5876 5874 5872 5870 5869 5867 5866 5864 5862 5859 5857 5855 5853
5891 5892 5892 5892 5891 5892 5892 5892 5892 5892 5891 5891 5891 5890 5890 5889 5889 5889 5888 5888 5887 5886 5885 5884 5883 5882 5880 5879 5877 5875 5872 5870 5868 5866 5865 5863 5862 5860 5858 5855 5853 5850 5848
5886 5887 5887 5887 5887 5887 5888 5888 5888 5887 5887 5887 5887 5887 5887 5886 5886 5885 5884 5884 5883 5883 5882 5881 5880 5878 5877 5875 5873 5871 5869 5867 5864 5862 5861 5859 5857 5855 5853 5850 5848 5846 5843
5880 5881 5881 5882 5882 5882 5882 5883 5882 5882 5882 5881 5882 5882 5882 5882 5882 5881 5880 5880 5879 5878 5877 5876 5875 5874 5872 5871 5869 5867 5864 5862 5860 5858 5856 5854 5851 5849 5847 5845 5843 5840 5838
5874 5875 5875 5876 5876 5877 5877 5877 5877 5877 5877 5876 5877 5877 5877 5877 5877 5876 5876 5875 5873 5872 5872 5871 5870 5869 5868 5866 5864 5862 5859 5857 5855 5853 5851 5848 5846 5844 5841 5839 5837 5835 5832
5866 5867 5868 5869 5870 5871 5871 5871 5871 5871 5871 5871 5872 5872 5872 5872 5871 5871 5870 5869 5868 5867 5866 5866 5865 5863 5862 5860 5858 5856 5854 5852 5850 5847 5845 5843 5840 5838 5835 5833 5831 5828 5826
5858 5860 5861 5862 5863 5864 5864 5864 5865 5865 5865 5865 5865 5865 5865 5865 5865 5865 5864 5863 5862 5861 5860 5859 5858 5857 5855 5853 5851 5849 5847 5845 5843 5841 5838 5836 5834 5832 5829 5827 5824 5822 5819
5850 5852 5854 5855 5856 5857 5857 5857 5858 5859 5859 5858 5858 5858 5858 5858 5858 5857 5857 5856 5855 5855 5853 5852 5851 5850 5848 5846 5844 5843 5840 5838 5836 5834 5831 5829 5827 5825 5822 5820 5817 5814 5812
5842 5844 5846 5847 5848 5849 5850 5850 5851 5851 5851 5851 5851 5851 5851 5851 5850 5850 5849 5849 5848 5847 5846 5845 5844 5842 5840 5838 5836 5835 5833 5830 5828 5826 5824 5822 5820 5817 5815 5812 5809 5807 5804
5834 5836 5837 5838 5839 5841 5841 5842 5843 5844 5843 5843 5843 5843 5843 5843 5843 5842 5841 5841 5840 5839 5838 5837 5835 5834 5832 5830 5828 5826 5824 5822 5820 5818 5816 5813 5811 5809 5806 5804 5801 5799 5796
5825 5827 5828 5830 5831 5832 5833 5834 5835 5835 5835 5835 5835 5835 5835 5834 5834 5833 5833 5832 5831 5831 5830 5828 5827 5825 5824 5821 5819 5817 5815 5813 5812 5809 5807 5805 5802 5800 5798 5795 5792 5790 5787
5816 5818 5819 5821 5822 5823 5824 5825 5826 5826 5826 5826 5826 5826 5826 5826 5825 5825 5824 5823 5823 5822 5821 5820 5818 5816 5814 5812 5810 5809 5807 5805 5803 5801 5799 5796 5794 5791 5789 5786 5783 5781 5778